Lunenburg, Nouvelle Écosse

Conditions des dernières 24 heures

Ce tableau est un sommaire des conditions météo couvrant les dernières 24 heures. Ce sommaire inclut les paramètres suivants: température, humidité, point de rosée, direction et vitesse du vent, pression barométrique, facteur de refroidissement éolien ou indice humidex.
Date / Heure
(HAA)
Conditions Temp (°C) Humidite (%) Point de rose (°C) Vent (km/h) Pression (kPa) Visibilité (km)
24 juillet 2014
5:00 N.D. 15   99 15 SSO 7 100,9 N.D.
4:00 N.D. 15   99 15 SO 14 100,9 N.D.
3:00 N.D. 15   98 15 SSO 16 100,8 N.D.
2:00 N.D. 16 97 15 OSO 14 100,9 N.D.
1:00 N.D. 16 96 15 SO 13 101,0 N.D.
0:00 N.D. 17 92 15 SO 17 101,0 N.D.
23 juillet 2014
23:00 N.D. 16 87 14 SO 16 101,0 N.D.
22:00 N.D. 17 87 15 SSO 21 101,0 N.D.
21:00 N.D. 17 88 15 SO 22 100,9 N.D.
20:00 N.D. 18 86 15 SO 25 100,9 N.D.
19:00 N.D. 19 83 16 SO 29 100,8 N.D.
18:00 N.D. 20   80 16 SSO 23 100,8 N.D.
17:00 N.D. 20   79 16 SO 29 100,9 N.D.
16:00 N.D. 20   80 16 SSO 28 rafale 40 100,9 N.D.
15:00 N.D. 20   N.D. N.D. 37 101,0 N.D.
14:00 N.D. 20   N.D. N.D. 32 101,0 N.D.
13:00 N.D. 20   N.D. N.D. calme 101,1 N.D.
12:00 N.D. 20   N.D. N.D. 16 rafale 28 101,2 N.D.
11:00 N.D. 19 N.D. N.D. 22 101,2 N.D.
10:00 N.D. 19 N.D. N.D. 7 101,3 N.D.
9:00 N.D. 17 N.D. N.D. NNO 15 101,4 N.D.
8:00 N.D. 16 N.D. N.D. NNO 8 101,4 N.D.
7:00 N.D. 15   N.D. N.D. N 8 101,4 N.D.
6:00 N.D. 15   N.D. N.D. NNO 11 101,4 N.D.
5:00 N.D. 16 N.D. N.D. N 14 101,4 N.D.
N.D.
non disponible
 ↑ 
température la plus haute
 ↓ 
température la plus basse

Si vous désirez plus de données historiques sur les conditions météo, s.v.p. visitez Données climatologiques en ligne.